Pittsfield, IL

8:43 PM CDT on March 28, 2017 (GMT -0500)
Pittsfield Penstone Municipal

Weather History for KPPQ - September, 2014

Change the Weather History Date:

Tuesday, September 2, 2014

  Actual Average (KUIN) Record (KUIN)
Temperature  
Mean Temperature 75 °F -  
Max Temperature 82 °F 82 °F 103 °F (1913)
Min Temperature 68 °F 63 °F 45 °F (1949)
Cooling Degree Days 10    
Growing Degree Days 25 (Base 50)    
Moisture  
Dew Point 67 °F    
Average Humidity 80    
Maximum Humidity 93    
Minimum Humidity 54    
Precipitation  
Precipitation 0.06 in - - ()
Sea Level Pressure  
Sea Level Pressure 29.96 in    
Wind  
Wind Speed 4 mph (WSW)    
Max Wind Speed 10 mph    
Max Gust Speed -    
Visibility 9 miles    
Events Rain , Thunderstorm    
Averages and records for this station are not official NWS values.
T = Trace of Precipitation, MM = Missing Value Source: NWS Daily Summary

Daily Weather History Graph

Daily Weather History Graph

Search for Another Location

Airport or City:

Trip Planner

Search our weather history database for the weather conditions in past years. The results will help you decide how hot, cold, wet, or windy it might be!

Date:

Astronomy

Sep. 02, 2014 Rise Set
Actual Time 6:32 AM CDT 7:32 PM CDT
Civil Twilight 6:04 AM CDT 8:00 PM CDT
Nautical Twilight 5:31 AM CDT 8:32 PM CDT
Astronomical Twilight 4:57 AM CDT 9:06 PM CDT
Moon 2:15 PM CDT (9/2) No Moon Set
Length of Visible Light 13h 55m
Length of Day
13h 00m
First Quarter, 53% of the Moon is Illuminated
Sep 2
First Quarter
Sep 8
Full
Sep 15
Last Quarter
Sep 24
New
Oct 1
First Quarter

Hourly Weather History & Observations

Time (CDT) Temp. Heat Index Dew Point Humidity Pressure Visibility Wind Dir Wind Speed Gust Speed Precip Events Conditions
12:15 AM 70.9 °F - 68.7 °F 93% 29.91 in 10.0 mi South 3.5 mph - N/A   Mostly Cloudy
12:35 AM 71.6 °F - 69.1 °F 92% 29.96 in 10.0 mi WSW 10.4 mph - N/A Rain , Thunderstorm Light Thunderstorms and Rain
12:55 AM 71.2 °F - 68.7 °F 92% 29.91 in 7.0 mi South 8.1 mph - 0.02 in Rain Rain
1:15 AM 70.7 °F - 68.0 °F 91% 29.89 in 7.0 mi South 6.9 mph - 0.04 in Rain Light Rain
1:35 AM 70.3 °F - 68.0 °F 92% 29.92 in 10.0 mi SSW 4.6 mph - 0.04 in Thunderstorm Overcast
1:55 AM 70.2 °F - 67.8 °F 92% 29.93 in 10.0 mi SW 6.9 mph - 0.04 in   Overcast
2:15 AM 69.8 °F - 67.3 °F 92% 29.92 in 10.0 mi SSW 5.8 mph - N/A   Overcast
2:35 AM 69.8 °F - 67.3 °F 92% 29.89 in 10.0 mi South 6.9 mph - N/A   Overcast
2:55 AM 69.4 °F - 67.1 °F 92% 29.90 in 10.0 mi SSE 5.8 mph - N/A   Mostly Cloudy
3:15 AM 69.3 °F - 67.1 °F 93% 29.90 in 10.0 mi South 3.5 mph - N/A   Mostly Cloudy
3:35 AM 69.4 °F - 67.1 °F 92% 29.91 in 10.0 mi South 4.6 mph - N/A   Overcast
3:55 AM 69.3 °F - 67.1 °F 93% 29.91 in 10.0 mi SSW 3.5 mph - N/A   Overcast
4:15 AM 69.3 °F - 67.1 °F 93% 29.90 in 10.0 mi Calm Calm - N/A   Overcast
4:35 AM 69.1 °F - 66.7 °F 92% 29.91 in 10.0 mi West 3.5 mph - N/A   Scattered Clouds
4:55 AM 69.8 °F - 66.2 °F 88% 29.91 in 10.0 mi Calm Calm - N/A   Mostly Cloudy
5:15 AM 68.9 °F - 66.6 °F 92% 29.91 in 10.0 mi Calm Calm - N/A   Overcast
5:35 AM 69.1 °F - 66.7 °F 92% 29.92 in 10.0 mi Calm Calm - N/A   Overcast
5:55 AM 68.9 °F - 66.6 °F 92% 29.92 in 10.0 mi Calm Calm - N/A   Overcast
6:15 AM 68.5 °F - 66.0 °F 92% 29.92 in 10.0 mi Calm Calm - N/A   Scattered Clouds
6:35 AM 68.0 °F - 65.7 °F 92% 29.92 in 5.0 mi Calm Calm - N/A   Clear
6:55 AM 68.0 °F - 65.7 °F 92% 29.93 in 4.0 mi Calm Calm - N/A   Scattered Clouds
7:15 AM 68.5 °F - 66.6 °F 93% 29.94 in 5.0 mi Calm Calm - N/A   Overcast
7:35 AM 68.9 °F - 66.7 °F 93% 29.94 in 4.0 mi Calm Calm - N/A   Overcast
7:55 AM 68.9 °F - 66.9 °F 93% 29.93 in 4.0 mi Calm Calm - N/A   Scattered Clouds
8:15 AM 69.8 °F - 67.5 °F 92% 29.94 in 4.0 mi Calm Calm - N/A   Clear
8:35 AM 70.3 °F - 67.8 °F 92% 29.95 in 7.0 mi Calm Calm - N/A   Clear
8:55 AM 71.2 °F - 67.8 °F 89% 29.96 in 10.0 mi Calm Calm - N/A   Clear
9:15 AM 72.1 °F - 68.2 °F 87% 29.96 in 10.0 mi WSW 3.5 mph - N/A   Clear
9:35 AM 73.4 °F - 68.4 °F 84% 29.97 in 10.0 mi West 3.5 mph - N/A   Clear
9:55 AM 73.6 °F - 68.4 °F 84% 29.97 in 10.0 mi West 5.8 mph - N/A   Scattered Clouds
10:15 AM 74.1 °F - 68.7 °F 83% 29.97 in 10.0 mi West 3.5 mph - N/A   Mostly Cloudy
10:35 AM 74.7 °F - 68.9 °F 82% 29.97 in 10.0 mi West 5.8 mph - N/A   Mostly Cloudy
10:55 AM 75.0 °F - 68.5 °F 80% 29.97 in 10.0 mi West 5.8 mph - N/A   Mostly Cloudy
11:15 AM 77.0 °F - 69.8 °F 78% 29.97 in 10.0 mi West 5.8 mph - N/A   Mostly Cloudy
11:35 AM 77.0 °F - 68.4 °F 75% 29.97 in 10.0 mi West 8.1 mph - N/A   Mostly Cloudy
11:55 AM 78.1 °F - 68.7 °F 73% 29.98 in 10.0 mi West 6.9 mph - N/A   Mostly Cloudy
12:15 PM 78.4 °F - 68.0 °F 70% 29.98 in 10.0 mi WSW 8.1 mph - N/A   Scattered Clouds
12:35 PM 78.8 °F - 68.0 °F 69% 29.99 in 10.0 mi WSW 6.9 mph - N/A   Scattered Clouds
12:55 PM 80.6 °F 83.2 °F 68.0 °F 65% 29.99 in 10.0 mi West 8.1 mph - N/A   Scattered Clouds
1:15 PM 79.2 °F - 67.1 °F 66% 30.00 in 10.0 mi West 8.1 mph - N/A   Scattered Clouds
1:35 PM 80.6 °F 82.8 °F 66.6 °F 62% 30.00 in 10.0 mi West 9.2 mph - N/A   Mostly Cloudy
1:55 PM 81.0 °F 82.7 °F 64.8 °F 58% 30.00 in 10.0 mi WSW 8.1 mph - N/A   Scattered Clouds
2:15 PM 81.1 °F 82.8 °F 64.8 °F 57% 29.99 in 10.0 mi WSW 8.1 mph - N/A   Clear
2:35 PM 81.5 °F 83.4 °F 65.5 °F 58% 30.00 in 10.0 mi West 10.4 mph - N/A   Scattered Clouds
2:55 PM 82.2 °F 83.8 °F 64.6 °F 55% 29.99 in 10.0 mi SW 10.4 mph - N/A   Scattered Clouds
3:35 PM 81.9 °F 83.4 °F 64.4 °F 55% 29.96 in 10.0 mi West 8.1 mph - N/A   Clear
3:55 PM 81.1 °F 82.8 °F 64.6 °F 57% 29.96 in 10.0 mi West 5.8 mph - N/A   Clear
4:15 PM 82.4 °F 83.9 °F 64.2 °F 54% 29.96 in 10.0 mi West 6.9 mph - N/A   Scattered Clouds
4:35 PM 81.5 °F 83.3 °F 65.1 °F 57% 29.95 in 10.0 mi NW 4.6 mph - N/A   Scattered Clouds
4:55 PM 82.2 °F 83.8 °F 64.6 °F 55% 29.94 in 10.0 mi NW 4.6 mph - N/A   Scattered Clouds
5:15 PM 81.7 °F 83.2 °F 64.0 °F 55% 29.94 in 10.0 mi West 5.8 mph - N/A   Clear
5:35 PM 81.5 °F 83.1 °F 64.2 °F 56% 29.94 in 10.0 mi WNW 5.8 mph - N/A   Clear
5:55 PM 81.7 °F 83.2 °F 63.9 °F 55% 29.94 in 10.0 mi West 4.6 mph - N/A   Clear
6:15 PM 81.7 °F 83.5 °F 65.1 °F 57% 29.95 in 10.0 mi West 3.5 mph - N/A   Clear
6:35 PM 81.0 °F 82.7 °F 64.9 °F 58% 29.94 in 10.0 mi West 4.6 mph - N/A   Scattered Clouds
6:55 PM 79.9 °F - 64.6 °F 59% 29.94 in 10.0 mi Calm Calm - N/A   Clear
7:15 PM 77.9 °F - 65.7 °F 66% 29.94 in 10.0 mi Calm Calm - N/A   Clear
7:35 PM 74.8 °F - 66.4 °F 75% 29.95 in 10.0 mi Calm Calm - N/A   Clear
7:55 PM 73.2 °F - 66.2 °F 79% 29.96 in 10.0 mi Calm Calm - N/A   Clear
8:15 PM 72.1 °F - 67.8 °F 86% 29.97 in 10.0 mi Calm Calm - N/A   Clear
8:35 PM 72.3 °F - 67.3 °F 84% 29.98 in 10.0 mi Calm Calm - N/A   Clear
8:55 PM 71.6 °F - 66.7 °F 85% 29.99 in 10.0 mi Calm Calm - N/A   Clear
9:15 PM 69.6 °F - 66.2 °F 89% 30.00 in 10.0 mi Calm Calm - N/A   Clear
9:35 PM 68.4 °F - 65.5 °F 90% 30.00 in 7.0 mi Calm Calm - N/A   Clear
9:55 PM 68.4 °F - 65.5 °F 90% 30.01 in 10.0 mi Calm Calm - N/A   Scattered Clouds
10:15 PM 68.4 °F - 65.5 °F 90% 30.01 in 7.0 mi South 3.5 mph - N/A   Scattered Clouds
10:35 PM 69.3 °F - 65.8 °F 89% 30.02 in 10.0 mi SSW 4.6 mph - N/A   Clear
10:55 PM 69.8 °F - 66.2 °F 88% 30.02 in 10.0 mi SSW 4.6 mph - N/A   Clear
11:15 PM 70.7 °F - 66.6 °F 87% 30.03 in 10.0 mi SW 3.5 mph - N/A   Clear
11:35 PM 70.3 °F - 66.7 °F 88% 30.03 in 10.0 mi SSW 4.6 mph - N/A   Scattered Clouds
11:55 PM 70.7 °F - 67.1 °F 88% 30.03 in 10.0 mi SSW 3.5 mph - N/A   Clear